Cut Bank, MT

11:04 AM MST on December 14, 2017 (GMT -0700)
Cut Bank Municipal

Weather History for KCTB - April, 2013

Change the Weather History Date:

Monday, April 29, 2013

  Actual Average Record
Temperature  
Mean Temperature 40 °F 45 °F  
Max Temperature 50 °F 58 °F 84 °F (1939)
Min Temperature 29 °F 32 °F 10 °F (1954)
Degree Days  
Heating Degree Days 25 20  
Month to date heating degree days 801 700  
Since 1 July heating degree days 7595 7798  
Cooling Degree Days 0 0  
Month to date cooling degree days 0 0  
Year to date cooling degree days 0 0  
Moisture  
Dew Point 30 °F    
Average Humidity 62    
Maximum Humidity 85    
Minimum Humidity 39    
Precipitation  
Precipitation 0.01 in 0.03 in 1.12 in (1922)
Month to date precipitation 0.69 0.74  
Year to date precipitation 1.99 1.65  
Snow  
Snow 0.00 in - - ()
Snow Depth 0.00 in    
Sea Level Pressure  
Sea Level Pressure 29.58 in    
Wind  
Wind Speed 26 mph (West)    
Max Wind Speed 46 mph    
Max Gust Speed 53 mph    
Visibility 8 miles    
Events Rain , Snow    
T = Trace of Precipitation, MM = Missing Value Source: NWS Daily Summary

Daily Weather History Graph

Daily Weather History Graph

Search for Another Location

Airport or City:

Trip Planner

Search our weather history database for the weather conditions in past years. The results will help you decide how hot, cold, wet, or windy it might be!

Date:

Astronomy

Apr. 29, 2013 Rise Set
Actual Time 6:12 AM MDT 8:41 PM MDT
Civil Twilight 5:37 AM MDT 9:17 PM MDT
Nautical Twilight 4:53 AM MDT 10:01 PM MDT
Astronomical Twilight 4:02 AM MDT 10:53 PM MDT
Moon 12:23 AM MDT (4/29) 9:29 AM MDT (4/29)
Length of Visible Light 15h 39m
Length of Day
14h 29m
Waning Gibbous, 79% of the Moon is Illuminated
Apr 29
Waning Gibbous
May 2
Last Quarter
May 9
New
May 17
First Quarter
May 24
Full

Hourly Weather History & Observations

Time (MDT) Temp. Windchill Dew Point Humidity Pressure Visibility Wind Dir Wind Speed Gust Speed Precip Events Conditions
12:56 AM 48.0 °F - 28.0 °F 46% 29.60 in 10.0 mi WSW 28.8 mph 34.5 mph N/A   Overcast
1:56 AM 46.9 °F - 28.0 °F 48% 29.59 in 10.0 mi West 34.5 mph 42.6 mph N/A   Clear
2:56 AM 45.0 °F 36.9 °F 30.0 °F 56% 29.59 in 10.0 mi West 20.7 mph - N/A   Clear
3:56 AM 43.0 °F 36.0 °F 30.9 °F 62% 29.57 in 10.0 mi WSW 13.8 mph 24.2 mph N/A   Clear
4:56 AM 42.1 °F 31.3 °F 30.9 °F 65% 29.54 in 10.0 mi WSW 29.9 mph 36.8 mph N/A   Clear
5:56 AM 41.0 °F 29.3 °F 30.9 °F 67% 29.49 in 10.0 mi WSW 33.4 mph 43.7 mph N/A   Clear
6:56 AM 39.9 °F 28.6 °F 32.0 °F 73% 29.50 in 10.0 mi WSW 28.8 mph 39.1 mph N/A   Clear
7:56 AM 44.1 °F 33.3 °F 30.9 °F 60% 29.47 in 10.0 mi WSW 34.5 mph 43.7 mph N/A   Clear
8:56 AM 46.9 °F - 30.9 °F 54% 29.48 in 10.0 mi WSW 29.9 mph 39.1 mph N/A   Clear
9:56 AM 48.0 °F - 28.0 °F 46% 29.46 in 10.0 mi WSW 28.8 mph 36.8 mph N/A   Clear
10:56 AM 46.0 °F 35.8 °F 27.0 °F 47% 29.48 in 10.0 mi WSW 36.8 mph 44.9 mph N/A   Overcast
11:14 AM 39.2 °F 28.7 °F 33.8 °F 81% 29.49 in 10.0 mi West 23.0 mph 36.8 mph 0.00 in Rain Light Rain
11:24 AM 42.8 °F 34.3 °F 33.8 °F 70% 29.49 in 10.0 mi West 19.6 mph 28.8 mph 0.00 in   Overcast
11:56 AM 35.1 °F 24.1 °F 33.1 °F 92% 29.54 in 4.0 mi WNW 19.6 mph - 0.00 in Snow Light Snow
11:59 AM 35.6 °F 25.5 °F 32.0 °F 87% 29.50 in 2.5 mi WNW 17.3 mph - 0.00 in Snow Light Snow
12:08 PM 33.8 °F 22.5 °F 32.0 °F 93% 29.50 in 1.2 mi West 19.6 mph 31.1 mph 0.00 in Snow Light Snow
12:14 PM 35.6 °F 24.2 °F 32.0 °F 87% 29.49 in 2.0 mi West 21.9 mph 29.9 mph 0.00 in Snow Light Snow
12:21 PM 35.6 °F 23.4 °F 33.8 °F 93% 29.49 in 9.0 mi West 25.3 mph 31.1 mph 0.00 in   Overcast
12:37 PM 41.0 °F 30.7 °F 37.4 °F 87% 29.47 in 9.0 mi West 25.3 mph 29.9 mph 0.00 in   Scattered Clouds
12:56 PM 43.0 °F 33.5 °F 37.9 °F 82% 29.45 in 10.0 mi WSW 24.2 mph 33.4 mph 0.00 in   Clear
1:48 PM 35.6 °F 21.9 °F 30.2 °F 81% 29.50 in 1.8 mi WNW 33.4 mph 51.8 mph 0.01 in Snow Light Snow
1:56 PM 35.1 °F 22.0 °F 32.0 °F 89% 29.54 in 1.5 mi West 28.8 mph 43.7 mph 0.01 in Snow Light Snow
2:03 PM 37.4 °F 25.4 °F 33.8 °F 87% 29.51 in 3.0 mi West 27.6 mph 36.8 mph 0.00 in Snow Light Snow
2:56 PM 42.1 °F 31.1 °F 26.1 °F 53% 29.52 in 10.0 mi WSW 31.1 mph 44.9 mph 0.00 in   Mostly Cloudy
3:56 PM 48.0 °F - 25.0 °F 41% 29.51 in 10.0 mi West 28.8 mph 39.1 mph N/A   Clear
4:56 PM 43.0 °F 31.1 °F 26.1 °F 51% 29.57 in 10.0 mi West 40.3 mph 48.3 mph N/A   Clear
5:41 PM 39.2 °F 26.6 °F 24.8 °F 56% 29.60 in 10.0 mi NW 34.5 mph 41.4 mph N/A   Mostly Cloudy
5:56 PM 39.0 °F 26.1 °F 25.0 °F 57% 29.65 in 10.0 mi NW 36.8 mph 49.5 mph N/A   Mostly Cloudy
6:56 PM 37.0 °F 24.9 °F 26.1 °F 65% 29.69 in 10.0 mi NNW 27.6 mph 36.8 mph N/A   Scattered Clouds
7:56 PM 34.0 °F 21.5 °F 27.0 °F 75% 29.75 in 10.0 mi NNW 24.2 mph - N/A   Scattered Clouds
8:18 PM 33.8 °F 21.0 °F 26.6 °F 75% 29.71 in 10.0 mi NNW 25.3 mph 31.1 mph N/A   Mostly Cloudy
8:56 PM 32.0 °F 19.2 °F 26.1 °F 79% 29.77 in 10.0 mi NNW 23.0 mph 32.2 mph N/A   Mostly Cloudy
9:11 PM 32.0 °F 19.2 °F 26.6 °F 80% 29.74 in 10.0 mi North 23.0 mph 31.1 mph N/A   Overcast
9:56 PM 30.0 °F 20.5 °F 25.0 °F 82% 29.81 in 10.0 mi NNW 11.5 mph - N/A   Scattered Clouds
10:56 PM 30.0 °F 22.4 °F 26.1 °F 85% 29.83 in 10.0 mi WNW 8.1 mph - N/A   Mostly Cloudy
11:56 PM 32.0 °F 24.2 °F 25.0 °F 75% 29.85 in 10.0 mi WNW 9.2 mph - N/A   Overcast